EW4552 Weather Reports


Display with metric or nautical units.
time (UTC)temp
F
wind
direction
speed
MPH
gust
MPH
rain 1hr
in
rain 24hr
in
rain mn
in
humidity
%
barometer
mb
20260901114957 59 223 0.0 1.0 0.11 0.11 0.11 1 1019.9
20260901114456 59 269 0.0 1.0 0.09 0.09 0.09 1 1020.0
20260901113959 59 46 0.0 1.0 0.09 0.09 0.09 1 1020.0
20260901113501 59 46 0.0 1.0 0.08 0.08 0.08 1 1019.9
20260901113001 59 63 0.0 1.0 0.07 0.07 0.07 1 1019.8
20260901112456 59 46 0.0 1.0 0.06 0.06 0.06 23 1019.7
20260901111458 58 241 0.0 1.0 0.02 0.02 0.02 25 1019.5
20260901110956 58 269 0.0 1.0 0.01 0.01 0.01 23 1019.2
20260901110457 58 46 0.0 1.0 0.00 0.00 0.00 25 1019.1
20260901105959 58 178 0.0 1.0 0.00 0.00 0.00 21 1019.0
20260901105457 58 223 0.0 1.0 0.00 0.00 0.00 24 1019.1
20260901104957 58 46 0.0 1.0 0.00 0.00 0.00 24 1019.0
20260901104456 58 46 0.0 1.0 0.00 0.00 0.00 23 1018.7
20260901103957 58 89 0.0 1.0 0.00 0.00 0.00 19 1018.6
20260901103456 58 269 0.0 1.0 0.00 0.00 0.00 22 1018.9
20260901102956 58 314 0.0 1.0 0.00 0.00 0.00 20 1018.9
20260901102458 58 241 0.0 1.0 0.00 0.00 0.00 18 1018.6
20260901101957 58 1 0.0 1.0 0.00 0.00 0.00 18 1018.6
20260901095959 58 28 0.0 1.0 0.00 0.00 0.00 22 1018.6
20260901095457 58 46 0.0 1.0 0.00 0.00 0.00 26 1018.6
20260901093956 58 46 0.0 1.0 0.00 0.00 0.00 24 1018.4
20260901093458 58 63 0.0 2.0 0.00 0.00 0.00 28 1018.2
20260901092457 57 178 0.0 1.0 0.00 0.00 0.00 24 1018.4
20260901090956 57 1 0.0 1.0 0.00 0.00 0.00 22 1018.4
20260901090457 57 46 0.0 1.0 0.00 0.00 0.00 23 1018.3
20260901084957 57 241 0.0 1.0 0.00 0.00 0.00 25 1018.4
20260901083956 57 223 0.0 1.0 0.00 0.00 0.00 27 1018.5
20260901083456 57 46 0.0 1.0 0.00 0.00 0.00 30 1018.5
20260901082956 57 1 0.0 1.0 0.00 0.00 0.00 28 1018.5
20260901082456 57 89 0.0 0.0 0.00 0.00 0.00 28 1018.6
20260901081457 56 1 0.0 0.0 0.00 0.00 0.00 31 1018.5
20260901081001 56 46 0.0 1.0 0.00 0.00 0.00 32 1018.4
20260901080501 56 178 0.0 1.0 0.00 0.00 0.00 34 1018.4
20260901075957 56 269 0.0 1.0 0.00 0.00 0.00 35 1018.6
20260901075501 56 46 0.0 1.0 0.00 0.00 0.00 36 1018.6
20260901074956 56 89 0.0 1.0 0.00 0.00 0.00 39 1018.6
20260901074457 56 1 0.0 0.0 0.00 0.00 0.00 40 1018.6
20260901073956 56 269 0.0 1.0 0.00 0.00 0.00 42 1018.6
20260901073456 56 46 0.0 1.0 0.00 0.00 0.00 44 1018.6
20260901072957 56 46 0.0 1.0 0.00 0.00 0.00 46 1018.6
20260901072457 56 269 0.0 1.0 0.00 0.00 0.00 47 1018.7
20260901071956 56 178 0.0 1.0 0.00 0.00 0.00 49 1018.8
20260901071457 56 1 0.0 1.0 0.00 0.00 0.00 51 1018.9
20260901070957 56 269 0.0 1.0 0.00 0.00 0.00 51 1018.8
20260901070457 56 269 0.0 1.0 0.00 0.00 0.00 52 1018.8
20260901065956 56 46 0.0 1.0 0.00 0.00 0.00 52 1019.0
20260901065456 56 46 0.0 1.0 0.00 0.00 0.00 53 1018.9
20260901064956 56 46 0.0 1.0 0.00 0.00 0.00 53 1018.8
20260901064456 56 223 0.0 1.0 0.00 0.00 0.00 54 1018.7
20260901063955 56 46 0.0 1.0 0.00 0.00 0.00 53 1018.9
20260901062955 56 1 0.0 1.0 0.00 0.00 0.00 53 1019.1
20260901062455 56 206 0.0 1.0 0.00 0.00 0.00 54 1019.1
20260901061955 57 63 0.0 1.0 0.00 0.00 0.00 54 1019.1
20260901061455 57 46 0.0 1.0 0.00 0.00 0.00 54 1019.1
20260901060955 57 46 0.0 1.0 0.00 0.00 0.00 54 1019.1
20260901060455 57 152 0.0 1.0 0.00 0.00 0.00 54 1019.2
20260901055956 57 178 0.0 1.0 0.00 0.00 0.00 54 1019.3
20260901055455 57 269 0.0 1.0 0.00 0.00 0.00 54 1019.2
20260901053955 57 269 0.0 1.0 0.00 0.00 0.00 54 1019.1
20260901053456 57 1 0.0 1.0 0.00 0.00 0.00 55 1019.1
20260901052954 57 269 0.0 1.0 0.00 0.00 0.00 54 1019.2
20260901052456 57 135 0.0 1.0 0.00 0.00 0.00 54 1019.4
20260901051456 58 241 0.0 1.0 0.00 0.00 0.00 54 1019.4
20260901050956 58 223 0.0 1.0 0.00 0.00 0.00 54 1019.2
20260901050456 58 269 0.0 1.0 0.00 0.00 0.00 54 1019.3
20260901045458 58 269 0.0 1.0 0.00 0.00 0.00 53 1019.2
20260901044959 58 46 0.0 1.0 0.00 0.00 0.00 53 1019.2
20260901044501 58 269 0.0 1.0 0.00 0.00 0.00 53 1019.2
20260901044004 58 1 0.0 1.0 0.00 0.00 0.00 53 1019.3
20260901043501 58 46 0.0 0.0 0.00 0.00 0.00 52 1019.2
20260901043004 58 1 0.0 1.0 0.00 0.00 0.00 52 1019.1
20260901042459 58 269 0.0 1.0 0.00 0.00 0.00 53 1019.0
20260901041959 58 206 0.0 1.0 0.00 0.00 0.00 53 1019.0
20260901041459 58 46 0.0 1.0 0.00 0.00 0.00 53 1019.1
20260901040958 58 1 0.0 1.0 0.00 0.00 0.00 53 1019.1
20260901035959 58 46 0.0 1.0 0.00 0.00 0.00 53 1019.1
20260901035458 58 1 0.0 1.0 0.00 0.00 0.00 54 1019.2
20260901034459 58 241 0.0 1.0 0.00 0.00 0.00 55 1019.3
20260901033459 58 46 0.0 1.0 0.00 0.00 0.00 56 1019.3
20260901032958 58 46 0.0 1.0 0.00 0.00 0.00 57 1019.2
20260901032459 58 269 0.0 1.0 0.00 0.00 0.00 57 1019.3
20260901030959 59 46 0.0 0.0 0.00 0.00 0.00 58 1019.2
20260901030458 59 46 0.0 0.0 0.00 0.00 0.00 58 1019.1
20260901025459 59 269 0.0 0.0 0.00 0.00 0.00 58 1019.2
20260901024959 59 46 0.0 1.0 0.00 0.00 0.00 58 1019.3
20260901024459 60 46 0.0 1.0 0.00 0.00 0.00 58 1019.3
20260901023959 60 1 0.0 1.0 0.00 0.00 0.00 58 1019.2
20260901023458 60 46 0.0 1.0 0.00 0.00 0.00 58 1019.3
20260901022958 60 1 0.0 1.0 0.00 0.00 0.00 58 1019.3
20260901021959 61 223 0.0 1.0 0.00 0.00 0.00 59 1019.2
20260901020958 61 269 0.0 1.0 0.00 0.00 0.00 59 1019.1
20260901020458 61 46 0.0 1.0 0.00 0.00 0.00 59 1019.1
20260901015958 61 1 0.0 1.0 0.00 0.00 0.00 59 1019.2
20260901014958 62 135 0.0 1.0 0.00 0.00 0.00 59 1019.1
20260901014459 62 269 0.0 1.0 0.00 0.00 0.00 59 1019.2
20260901013459 62 223 0.0 1.0 0.00 0.00 0.00 60 1019.0
20260901012458 63 46 0.0 1.0 0.00 0.00 0.00 60 1019.0
20260901012001 63 89 0.0 1.0 0.00 0.00 0.00 60 1019.0
20260901011504 63 241 0.0 1.0 0.00 0.00 0.00 60 1019.0
20260901010501 64 46 0.0 1.0 0.00 0.00 0.00 60 1019.0
20260901010001 64 250 0.0 1.0 0.00 0.00 0.00 60 1019.0
20260901005500 64 269 0.0 1.0 0.00 0.00 0.00 61 1019.1
20260901004958 65 46 0.0 0.0 0.00 0.00 0.00 61 1019.1
20260901004459 65 269 0.0 1.0 0.00 0.00 0.00 61 1019.1
20260901003958 65 178 0.0 1.0 0.00 0.00 0.00 61 1019.0
20260901003458 66 223 0.0 1.0 0.00 0.00 0.00 61 1019.0
20260901002959 66 46 0.0 1.0 0.00 0.00 0.00 61 1018.9
20260901002459 66 46 0.0 1.0 0.00 0.00 0.00 61 1018.9
20260901001959 67 314 0.0 1.0 0.00 0.00 0.00 61 1018.8
20260901001459 67 1 0.0 1.0 0.00 0.00 0.00 61 1018.8
20260901000958 67 1 0.0 1.0 0.00 0.00 0.00 61 1018.7
20260901000459 68 89 0.0 1.0 0.00 0.00 0.00 61 1018.6
20260831235957 68 1 0.0 1.0 0.00 0.00 0.00 61 1018.7
20260831234957 69 46 0.0 0.0 0.00 0.00 0.00 61 1018.8
20260831234458 69 269 0.0 1.0 0.00 0.00 0.00 60 1018.6
20260831233957 70 1 0.0 1.0 0.00 0.00 0.00 61 1018.6
20260831233457 70 314 0.0 1.0 0.00 0.00 0.00 60 1018.5
20260831232957 71 178 0.0 1.0 0.00 0.00 0.00 60 1018.5
20260831232458 71 46 0.0 1.0 0.00 0.00 0.00 60 1018.6
20260831231957 71 46 0.0 1.0 0.00 0.00 0.00 60 1018.5
20260831231456 72 269 0.0 1.0 0.00 0.00 0.00 60 1018.6
20260831230957 72 206 0.0 1.0 0.00 0.00 0.00 60 1018.7
20260831230458 72 178 0.0 1.0 0.00 0.00 0.00 60 1018.8
20260831230000 73 89 0.0 1.0 0.00 0.00 0.00 60 1018.9
20260831225458 73 269 0.0 1.0 0.00 0.00 0.00 60 1018.9
20260831224958 74 1 0.0 1.0 0.00 0.00 0.00 60 1018.9
20260831224459 74 314 0.0 1.0 0.00 0.00 0.00 59 1018.8
20260831223959 74 1 0.0 1.0 0.00 0.00 0.00 59 1018.7
20260831223458 75 269 0.0 1.0 0.00 0.00 0.00 59 1018.8
20260831222959 75 46 0.0 2.0 0.00 0.00 0.00 59 1018.7
20260831222458 75 314 0.0 2.0 0.00 0.00 0.00 59 1018.6
20260831221958 76 1 0.0 1.0 0.00 0.00 0.00 59 1018.6
20260831221458 76 63 0.0 2.0 0.00 0.00 0.00 59 1018.6
20260831220959 76 1 0.0 2.0 0.00 0.00 0.00 58 1018.6
20260831220458 77 89 0.0 2.0 0.00 0.00 0.00 58 1018.5
20260831220001 77 223 0.0 1.0 0.00 0.00 0.00 58 1018.6
20260831215458 77 117 0.0 2.0 0.00 0.00 0.00 58 1018.6
20260831214958 77 46 0.0 2.0 0.00 0.00 0.00 57 1018.6
20260831214459 77 152 1.0 3.0 0.00 0.00 0.00 56 1018.6
20260831214004 78 178 1.0 4.0 0.00 0.00 0.00 55 1018.6
20260831213501 78 178 2.0 4.0 0.00 0.00 0.00 54 1018.5
20260831212958 78 135 1.0 4.0 0.00 0.00 0.00 54 1018.5
20260831211458 79 223 1.0 10.0 0.00 0.00 0.00 53 1018.5
20260831211000 80 124 0.0 5.0 0.00 0.00 0.00 55 1018.4
20260831210459 80 1 0.0 1.0 0.00 0.00 0.00 54 1018.5
20260831210001 81 46 0.0 2.0 0.00 0.00 0.00 53 1018.5
20260831205459 81 89 0.0 2.0 0.00 0.00 0.00 52 1018.6
20260831204959 82 178 1.0 2.0 0.00 0.00 0.00 51 1018.7
20260831203959 83 197 1.0 5.0 0.00 0.00 0.00 48 1018.7
20260831202959 84 72 1.0 3.0 0.00 0.00 0.00 49 1018.8
20260831202459 85 46 1.0 2.0 0.00 0.00 0.00 48 1018.8
20260831201958 86 178 1.0 2.0 0.00 0.00 0.00 47 1018.9
20260831201459 87 117 0.0 2.0 0.00 0.00 0.00 46 1018.9
20260831200957 88 63 1.0 2.0 0.00 0.00 0.00 45 1018.9
20260831200458 88 89 1.0 4.0 0.00 0.00 0.00 44 1018.9
20260831195958 89 63 1.0 4.0 0.00 0.00 0.00 41 1019.0
20260831195457 89 46 1.0 3.0 0.00 0.00 0.00 43 1019.0
20260831194958 89 202 1.0 2.0 0.00 0.00 0.00 43 1019.1
20260831194457 89 89 1.0 3.0 0.00 0.00 0.00 43 1019.1
20260831193958 89 197 1.0 4.0 0.00 0.00 0.00 44 1019.1
20260831193457 89 178 2.0 5.0 0.00 0.00 0.00 36 1019.1
20260831192457 89 178 2.0 5.0 0.00 0.00 0.00 45 1019.2
20260831191957 89 211 2.0 6.0 0.00 0.00 0.00 45 1019.2
20260831191457 89 223 2.0 6.0 0.00 0.00 0.00 45 1019.2
20260831190957 89 189 2.0 5.0 0.00 0.00 0.00 45 1019.2
20260831190457 89 195 2.0 5.0 0.00 0.00 0.00 45 1019.2
20260831185958 89 314 2.0 5.0 0.00 0.00 0.00 42 1019.3
20260831184958 89 89 2.0 4.0 0.00 0.00 0.00 42 1019.3
20260831184457 89 231 2.0 4.0 0.00 0.00 0.00 44 1019.4
20260831183458 89 210 2.0 3.0 0.00 0.00 0.00 46 1019.6
20260831182957 89 223 2.0 7.0 0.00 0.00 0.00 47 1019.6
20260831182457 89 105 2.0 7.0 0.00 0.00 0.00 46 1019.7
20260831181957 88 197 2.0 6.0 0.00 0.00 0.00 48 1019.8
20260831181457 88 191 2.0 6.0 0.00 0.00 0.00 44 1019.7
20260831180958 88 1 2.0 5.0 0.00 0.00 0.00 50 1019.7
20260831180458 87 135 1.0 5.0 0.00 0.00 0.00 50 1019.8
20260831175958 87 213 2.0 4.0 0.00 0.00 0.00 48 1019.8
20260831175501 87 108 2.0 5.0 0.00 0.00 0.00 50 1019.8
20260831175001 86 122 2.0 5.0 0.00 0.00 0.00 52 1019.8
20260831174501 86 46 2.0 4.0 0.00 0.00 0.00 52 1019.8
20260831173501 85 223 2.0 5.0 0.00 0.00 0.00 52 1020.1
20260831172957 85 223 2.0 5.0 0.00 0.00 0.00 53 1020.2
20260831171957 85 227 1.0 4.0 0.00 0.00 0.00 55 1020.2
20260831171457 84 223 2.0 5.0 0.00 0.00 0.00 53 1020.3
20260831170957 84 46 2.0 5.0 0.00 0.00 0.00 54 1020.3
20260831170457 84 218 2.0 5.0 0.00 0.00 0.00 54 1020.3
20260831170000 84 215 2.0 5.0 0.00 0.00 0.00 54 1020.4
20260831164957 84 295 1.0 4.0 0.00 0.00 0.00 54 1020.6
20260831163958 83 124 1.0 4.0 0.00 0.00 0.00 48 1020.6
20260831163458 83 241 1.0 3.0 0.00 0.00 0.00 49 1020.6
20260831162958 83 89 1.0 4.0 0.00 0.00 0.00 50 1020.5
20260831162459 83 145 2.0 4.0 0.00 0.00 0.00 51 1020.6
20260831161457 83 1 1.0 3.0 0.00 0.00 0.00 55 1020.7
20260831160457 82 1 2.0 5.0 0.00 0.00 0.00 57 1020.8
20260831155958 81 269 2.0 5.0 0.00 0.00 0.00 54 1020.8
20260831155458 81 178 2.0 5.0 0.00 0.00 0.00 55 1020.8
20260831154958 80 165 1.0 4.0 0.00 0.00 0.00 57 1020.9
20260831154457 80 53 2.0 4.0 0.00 0.00 0.00 59 1020.8
20260831153958 79 197 1.0 4.0 0.00 0.00 0.00 60 1020.9
20260831153457 78 206 1.0 4.0 0.00 0.00 0.00 60 1020.9
20260831152457 77 234 1.0 4.0 0.00 0.00 0.00 60 1020.9
20260831151957 76 74 1.0 5.0 0.00 0.00 0.00 59 1020.9
20260831150959 75 63 1.0 4.0 0.00 0.00 0.00 55 1021.1
20260831150000 73 49 2.0 4.0 0.00 0.00 0.00 56 1021.1
20260831145457 72 89 2.0 4.0 0.00 0.00 0.00 50 1021.2
20260831144957 72 135 1.0 4.0 0.00 0.00 0.00 36 1021.2
20260831144459 71 68 1.0 3.0 0.00 0.00 0.00 24 1021.3
20260831143958 70 46 1.0 3.0 0.00 0.00 0.00 4 1021.2
20260831143457 70 269 1.0 4.0 0.00 0.00 0.00 1 1021.4
20260831142958 69 211 1.0 3.0 0.00 0.00 0.00 1 1021.5
20260831142457 68 89 1.0 4.0 0.00 0.00 0.00 1 1021.4
20260831141958 67 178 1.0 4.0 0.00 0.00 0.00 1 1021.4
20260831141458 65 46 1.0 3.0 0.00 0.00 0.00 1 1021.4
20260831141001 65 145 1.0 3.0 0.00 0.00 0.00 1 1021.5
20260831140458 64 314 1.0 3.0 0.00 0.00 0.00 1 1021.5
20260831140002 63 108 1.0 3.0 0.00 0.00 0.00 1 1021.4
20260831135001 61 89 1.0 3.0 0.00 0.00 0.00 1 1021.3
20260831134458 60 89 1.0 4.0 0.00 0.00 0.00 1 1021.3
20260831133958 59 89 1.0 4.0 0.00 0.00 0.00 1 1021.3
20260831133458 59 210 1.0 1.0 0.00 0.00 0.00 1 1021.3
20260831132957 58 46 1.0 3.0 0.00 0.00 0.00 1 1021.3
20260831132458 57 89 1.0 3.0 0.00 0.00 0.00 1 1021.4
20260831131958 56 76 1.0 2.0 0.00 0.00 0.00 1 1021.4
20260831131457 56 72 1.0 2.0 0.00 0.00 0.00 1 1021.5
20260831130957 55 314 1.0 2.0 0.00 0.00 0.00 1 1021.6
20260831125958 54 46 1.0 2.0 0.00 0.00 0.00 1 1021.7
20260831125458 54 269 1.0 2.0 0.00 0.00 0.00 1 1021.7
20260831124958 53 295 0.0 2.0 0.00 0.00 0.00 1 1021.7
20260831124457 53 56 0.0 1.0 0.00 0.00 0.00 1 1021.7
20260831123957 53 241 0.0 1.0 0.00 0.00 0.00 1 1021.7
20260831123457 52 20 0.0 1.0 0.00 0.00 0.00 1 1021.7
20260831122957 52 1 0.0 1.0 0.00 0.00 0.00 1 1021.7
20260831122457 51 89 0.0 2.0 0.00 0.00 0.00 1 1021.7
20260831121959 51 1 0.0 2.0 0.00 0.00 0.00 1 1021.8
20260831121457 51 56 1.0 1.0 0.00 0.00 0.00 1 1021.8
20260831120957 50 46 0.0 1.0 0.00 0.00 0.00 1 1021.9
20260831120457 50 63 0.0 1.0 0.00 0.00 0.00 1 1021.9
20260831115959 50 223 0.0 1.0 0.00 0.00 0.00 1 1021.9
20260831115458 50 241 0.0 1.0 0.00 0.00 0.00 1 1021.9